| time (UTC) | temp F | wind direction | speed MPH | gust MPH | rain 1hr in | rain 24hr in | rain mn in | humidity % | barometer mb |
| 20260505003828 | 60 | 254 | 3.0 | 0.0 | 0.00 | 0.00 | 0.02 | 19 | 1014.0 |
| 20260505003330 | 60 | 244 | 4.0 | 0.0 | 0.00 | 0.00 | 0.02 | 19 | 1014.0 |
| 20260505002841 | 60 | 242 | 5.0 | 0.0 | 0.00 | 0.00 | 0.02 | 18 | 1014.0 |
| 20260505002329 | 60 | 248 | 4.0 | 0.0 | 0.00 | 0.00 | 0.02 | 18 | 1014.0 |
| 20260505001833 | 60 | 257 | 4.0 | 0.0 | 0.00 | 0.00 | 0.02 | 18 | 1014.0 |
| 20260505001358 | 60 | 228 | 4.0 | 0.0 | 0.00 | 0.00 | 0.02 | 18 | 1014.2 |
| 20260505000846 | 61 | 252 | 5.0 | 0.0 | 0.00 | 0.00 | 0.02 | 18 | 1014.2 |
| 20260505000335 | 61 | 260 | 5.0 | 0.0 | 0.00 | 0.00 | 0.02 | 17 | 1014.2 |
| 20260504235903 | 61 | 249 | 4.0 | 0.0 | 0.00 | 0.00 | 0.02 | 17 | 1014.3 |
| 20260504235345 | 61 | 259 | 4.0 | 0.0 | 0.00 | 0.00 | 0.02 | 16 | 1014.3 |
| 20260504234846 | 61 | 245 | 5.0 | 0.0 | 0.00 | 0.00 | 0.02 | 16 | 1014.3 |
| 20260504234335 | 62 | 236 | 4.0 | 0.0 | 0.00 | 0.00 | 0.02 | 16 | 1014.5 |
| 20260504233846 | 62 | 262 | 4.0 | 0.0 | 0.00 | 0.00 | 0.02 | 18 | 1014.5 |
| 20260504233348 | 61 | 266 | 6.0 | 0.0 | 0.00 | 0.00 | 0.02 | 18 | 1014.5 |
| 20260504232836 | 61 | 262 | 5.0 | 0.0 | 0.00 | 0.00 | 0.02 | 18 | 1014.5 |
| 20260504232344 | 61 | 220 | 5.0 | 0.0 | 0.00 | 0.00 | 0.02 | 19 | 1014.5 |
| 20260504231845 | 61 | 209 | 6.0 | 0.0 | 0.00 | 0.00 | 0.02 | 19 | 1014.5 |
| 20260504231332 | 61 | 248 | 6.0 | 0.0 | 0.00 | 0.00 | 0.02 | 20 | 1014.0 |
| 20260504230834 | 62 | 257 | 5.0 | 0.0 | 0.00 | 0.00 | 0.02 | 20 | 1014.0 |
| 20260504230343 | 62 | 195 | 5.0 | 0.0 | 0.00 | 0.00 | 0.02 | 20 | 1014.0 |
| 20260504225833 | 62 | 195 | 5.0 | 0.0 | 0.00 | 0.00 | 0.02 | 20 | 1014.1 |
| 20260504225335 | 62 | 191 | 5.0 | 0.0 | 0.00 | 0.00 | 0.02 | 20 | 1014.1 |
| 20260504224834 | 62 | 259 | 6.0 | 0.0 | 0.00 | 0.00 | 0.02 | 20 | 1014.1 |
| 20260504224344 | 62 | 255 | 6.0 | 0.0 | 0.00 | 0.00 | 0.02 | 20 | 1014.2 |
| 20260504223834 | 62 | 240 | 7.0 | 0.0 | 0.00 | 0.00 | 0.02 | 21 | 1014.2 |
| 20260504223404 | 62 | 227 | 6.0 | 0.0 | 0.00 | 0.00 | 0.02 | 21 | 1014.2 |
| 20260504222853 | 62 | 253 | 5.0 | 0.0 | 0.00 | 0.00 | 0.02 | 20 | 1014.1 |
| 20260504222335 | 62 | 203 | 6.0 | 0.0 | 0.00 | 0.00 | 0.02 | 21 | 1014.1 |
| 20260504221844 | 62 | 212 | 7.0 | 0.0 | 0.00 | 0.00 | 0.02 | 22 | 1014.1 |
| 20260504221353 | 62 | 200 | 8.0 | 0.0 | 0.00 | 0.00 | 0.02 | 20 | 1014.2 |
| 20260504220833 | 62 | 217 | 8.0 | 0.0 | 0.00 | 0.00 | 0.02 | 21 | 1014.2 |
| 20260504220343 | 62 | 253 | 7.0 | 0.0 | 0.00 | 0.00 | 0.02 | 21 | 1014.2 |
| 20260504215852 | 61 | 204 | 6.0 | 0.0 | 0.00 | 0.00 | 0.02 | 22 | 1014.9 |
| 20260504215412 | 61 | 276 | 6.0 | 0.0 | 0.00 | 0.00 | 0.02 | 23 | 1014.9 |
| 20260504214839 | 61 | 243 | 7.0 | 0.0 | 0.00 | 0.00 | 0.02 | 25 | 1014.9 |
| 20260504214404 | 62 | 268 | 6.0 | 0.0 | 0.00 | 0.00 | 0.02 | 24 | 1015.3 |
| 20260504213847 | 62 | 250 | 7.0 | 0.0 | 0.00 | 0.00 | 0.02 | 22 | 1015.3 |
| 20260504213357 | 62 | 268 | 7.0 | 0.0 | 0.00 | 0.00 | 0.02 | 22 | 1015.3 |
| 20260504212845 | 62 | 226 | 7.0 | 0.0 | 0.00 | 0.00 | 0.02 | 22 | 1015.2 |
| 20260504212351 | 62 | 267 | 6.0 | 0.0 | 0.00 | 0.00 | 0.02 | 22 | 1015.2 |
| 20260504211851 | 61 | 262 | 6.0 | 0.0 | 0.00 | 0.00 | 0.02 | 25 | 1015.2 |
| 20260504211339 | 62 | 266 | 6.0 | 0.0 | 0.00 | 0.00 | 0.02 | 23 | 1015.3 |
| 20260504210848 | 62 | 220 | 5.0 | 0.0 | 0.00 | 0.00 | 0.02 | 24 | 1015.3 |
| 20260504210329 | 63 | 274 | 5.0 | 0.0 | 0.00 | 0.00 | 0.02 | 25 | 1015.3 |
| 20260504205839 | 63 | 241 | 5.0 | 0.0 | 0.00 | 0.00 | 0.02 | 25 | 1015.8 |
| 20260504205341 | 63 | 243 | 4.0 | 0.0 | 0.00 | 0.00 | 0.02 | 24 | 1015.8 |
| 20260504204908 | 62 | 233 | 5.0 | 0.0 | 0.00 | 0.00 | 0.02 | 23 | 1015.8 |
| 20260504204334 | 62 | 207 | 5.0 | 0.0 | 0.00 | 0.00 | 0.02 | 25 | 1016.1 |
| 20260504203858 | 62 | 252 | 5.0 | 0.0 | 0.00 | 0.00 | 0.02 | 27 | 1016.1 |
| 20260504203337 | 62 | 193 | 5.0 | 0.0 | 0.00 | 0.00 | 0.02 | 25 | 1016.1 |
| 20260504202850 | 62 | 262 | 5.0 | 0.0 | 0.00 | 0.00 | 0.02 | 28 | 1015.9 |
| 20260504202346 | 61 | 210 | 5.0 | 0.0 | 0.00 | 0.00 | 0.02 | 30 | 1015.9 |
| 20260504201833 | 61 | 275 | 6.0 | 0.0 | 0.00 | 0.00 | 0.02 | 29 | 1015.9 |
| 20260504201333 | 60 | 202 | 6.0 | 0.0 | 0.00 | 0.00 | 0.02 | 28 | 1015.9 |
| 20260504200842 | 60 | 161 | 6.0 | 0.0 | 0.00 | 0.00 | 0.02 | 29 | 1015.9 |
| 20260504200348 | 60 | 200 | 6.0 | 0.0 | 0.00 | 0.00 | 0.02 | 30 | 1015.9 |
| 20260504195836 | 60 | 192 | 6.0 | 0.0 | 0.00 | 0.00 | 0.02 | 30 | 1016.1 |
| 20260504195338 | 60 | 219 | 6.0 | 0.0 | 0.00 | 0.00 | 0.02 | 32 | 1016.1 |
| 20260504194851 | 60 | 285 | 7.0 | 0.0 | 0.00 | 0.00 | 0.02 | 32 | 1016.1 |
| 20260504194349 | 60 | 250 | 6.0 | 0.0 | 0.00 | 0.00 | 0.02 | 34 | 1016.1 |
| 20260504193834 | 60 | 190 | 5.0 | 0.0 | 0.00 | 0.00 | 0.02 | 33 | 1016.1 |
| 20260504193330 | 60 | 145 | 5.0 | 0.0 | 0.00 | 0.00 | 0.02 | 33 | 1016.1 |
| 20260504192840 | 60 | 233 | 5.0 | 0.0 | 0.00 | 0.00 | 0.02 | 33 | 1016.0 |
| 20260504192329 | 60 | 204 | 5.0 | 0.0 | 0.00 | 0.00 | 0.02 | 33 | 1016.0 |
| 20260504191831 | 60 | 233 | 4.0 | 0.0 | 0.00 | 0.00 | 0.02 | 33 | 1016.0 |
| 20260504191356 | 59 | 216 | 5.0 | 0.0 | 0.00 | 0.00 | 0.02 | 35 | 1016.2 |
| 20260504190844 | 59 | 203 | 6.0 | 0.0 | 0.00 | 0.00 | 0.02 | 35 | 1016.2 |
| 20260504190332 | 59 | 226 | 5.0 | 0.0 | 0.00 | 0.00 | 0.02 | 35 | 1016.2 |
| 20260504185836 | 59 | 195 | 5.0 | 0.0 | 0.00 | 0.00 | 0.02 | 36 | 1016.3 |
| 20260504185336 | 59 | 223 | 4.0 | 0.0 | 0.00 | 0.00 | 0.02 | 36 | 1016.3 |
| 20260504184914 | 59 | 248 | 5.0 | 0.0 | 0.00 | 0.00 | 0.02 | 36 | 1016.3 |
| 20260504184333 | 59 | 233 | 5.0 | 0.0 | 0.00 | 0.00 | 0.02 | 35 | 1016.7 |
| 20260504183840 | 59 | 171 | 4.0 | 0.0 | 0.00 | 0.00 | 0.02 | 36 | 1016.7 |
| 20260504183339 | 58 | 216 | 3.0 | 0.0 | 0.00 | 0.00 | 0.02 | 37 | 1016.7 |
| 20260504182911 | 58 | 233 | 4.0 | 0.0 | 0.00 | 0.00 | 0.02 | 38 | 1017.3 |
| 20260504182330 | 58 | 223 | 4.0 | 0.0 | 0.00 | 0.00 | 0.02 | 36 | 1017.3 |
| 20260504181837 | 59 | 272 | 4.0 | 0.0 | 0.00 | 0.00 | 0.02 | 35 | 1017.3 |
| 20260504181329 | 58 | 262 | 4.0 | 0.0 | 0.00 | 0.00 | 0.02 | 36 | 1016.8 |
| 20260504180829 | 58 | 217 | 4.0 | 0.0 | 0.00 | 0.00 | 0.02 | 36 | 1016.8 |
| 20260504180338 | 58 | 211 | 4.0 | 0.0 | 0.00 | 0.00 | 0.02 | 37 | 1016.8 |
| 20260504175829 | 58 | 184 | 3.0 | 0.0 | 0.00 | 0.00 | 0.02 | 38 | 1017.0 |
| 20260504175349 | 58 | 248 | 4.0 | 0.0 | 0.00 | 0.00 | 0.02 | 38 | 1017.0 |
| 20260504174833 | 57 | 297 | 5.0 | 0.0 | 0.00 | 0.00 | 0.02 | 37 | 1017.0 |
| 20260504174403 | 58 | 208 | 5.0 | 0.0 | 0.00 | 0.00 | 0.02 | 37 | 1016.8 |
| 20260504173831 | 58 | 203 | 4.0 | 0.0 | 0.00 | 0.00 | 0.02 | 38 | 1016.8 |
| 20260504173359 | 58 | 212 | 3.0 | 0.0 | 0.00 | 0.00 | 0.02 | 37 | 1016.8 |
| 20260504172845 | 58 | 158 | 4.0 | 0.0 | 0.00 | 0.00 | 0.02 | 40 | 1017.3 |
| 20260504172346 | 57 | 195 | 4.0 | 0.0 | 0.00 | 0.00 | 0.02 | 39 | 1017.3 |
| 20260504171837 | 57 | 225 | 5.0 | 0.0 | 0.00 | 0.00 | 0.02 | 40 | 1017.3 |
| 20260504171336 | 57 | 215 | 5.0 | 0.0 | 0.00 | 0.00 | 0.02 | 39 | 1017.5 |
| 20260504170913 | 57 | 164 | 4.0 | 0.0 | 0.00 | 0.00 | 0.02 | 40 | 1017.5 |
| 20260504170333 | 57 | 212 | 4.0 | 0.0 | 0.00 | 0.00 | 0.02 | 41 | 1017.5 |
| 20260504160338 | 55 | 181 | 1.0 | 0.0 | 0.00 | 0.00 | 0.02 | 54 | 1017.2 |
| 20260504150854 | 54 | 172 | 1.0 | 0.0 | 0.00 | 0.00 | 0.02 | 59 | 1017.6 |
| 20260504150337 | 54 | 169 | 0.0 | 0.0 | 0.00 | 0.00 | 0.02 | 58 | 1017.6 |
| 20260504141331 | 48 | 37 | 0.0 | 0.0 | 0.00 | 0.00 | 0.02 | 74 | 1017.7 |
| 20260504140841 | 48 | 37 | 0.0 | 0.0 | 0.00 | 0.00 | 0.02 | 74 | 1017.7 |
| 20260504140352 | 48 | 37 | 0.0 | 0.0 | 0.00 | 0.00 | 0.02 | 74 | 1017.7 |
| 20260504130344 | 45 | 37 | 0.0 | 0.0 | 0.00 | 0.00 | 0.02 | 74 | 1017.3 |
| 20260504110352 | 45 | 65 | 2.0 | 0.0 | 0.00 | 0.00 | 0.02 | 78 | 1016.2 |
| 20260504100337 | 44 | 64 | 2.0 | 0.0 | 0.00 | 0.00 | 0.02 | 83 | 1016.0 |
| 20260504081838 | 47 | 189 | 0.0 | 0.0 | 0.00 | 0.00 | 0.02 | 79 | 1017.5 |
| 20260504081338 | 47 | 189 | 0.0 | 0.0 | 0.00 | 0.00 | 0.02 | 78 | 1017.8 |
| 20260504080844 | 47 | 189 | 0.0 | 0.0 | 0.00 | 0.00 | 0.02 | 77 | 1017.8 |
| 20260504080331 | 47 | 189 | 0.0 | 0.0 | 0.00 | 0.00 | 0.02 | 76 | 1017.8 |
| 20260504070342 | 50 | 39 | 2.0 | 0.0 | 0.00 | 0.00 | 0.00 | 64 | 1018.3 |
| 20260504050352 | 52 | 31 | 4.0 | 0.0 | 0.00 | 0.00 | 0.00 | 57 | 1018.0 |
| 20260504045832 | 52 | 37 | 3.0 | 0.0 | 0.00 | 0.00 | 0.00 | 54 | 1018.2 |
| 20260504045355 | 52 | 40 | 2.0 | 0.0 | 0.00 | 0.00 | 0.00 | 54 | 1018.2 |
| 20260504044842 | 52 | 45 | 2.0 | 0.0 | 0.00 | 0.00 | 0.00 | 53 | 1018.2 |
| 20260504044353 | 52 | 46 | 3.0 | 0.0 | 0.00 | 0.00 | 0.00 | 53 | 1018.5 |
| 20260504043842 | 53 | 55 | 3.0 | 0.0 | 0.00 | 0.00 | 0.00 | 52 | 1018.5 |
| 20260504043345 | 53 | 37 | 1.0 | 0.0 | 0.00 | 0.00 | 0.00 | 55 | 1018.5 |
| 20260504042855 | 53 | 3 | 0.0 | 0.0 | 0.00 | 0.00 | 0.00 | 51 | 1018.9 |
| 20260504042338 | 53 | 1 | 0.0 | 0.0 | 0.00 | 0.00 | 0.00 | 48 | 1018.9 |
| 20260504041908 | 53 | 1 | 0.0 | 0.0 | 0.00 | 0.00 | 0.00 | 50 | 1018.9 |
| 20260504041331 | 54 | 1 | 1.0 | 0.0 | 0.00 | 0.00 | 0.00 | 52 | 1018.5 |
| 20260504040847 | 54 | 1 | 1.0 | 0.0 | 0.00 | 0.00 | 0.00 | 49 | 1018.5 |
| 20260504040329 | 55 | 13 | 3.0 | 0.0 | 0.00 | 0.00 | 0.00 | 46 | 1018.5 |
| 20260504035857 | 55 | 238 | 3.0 | 0.0 | 0.00 | 0.00 | 0.00 | 44 | 1018.7 |
| 20260504035357 | 56 | 202 | 1.0 | 0.0 | 0.00 | 0.00 | 0.00 | 40 | 1018.7 |
| 20260504034911 | 56 | 188 | 2.0 | 0.0 | 0.00 | 0.00 | 0.00 | 39 | 1018.7 |
| 20260504034334 | 56 | 203 | 3.0 | 0.0 | 0.00 | 0.00 | 0.00 | 38 | 1018.5 |
| 20260504033844 | 56 | 204 | 2.0 | 0.0 | 0.00 | 0.00 | 0.00 | 37 | 1018.5 |
| 20260504033345 | 56 | 197 | 3.0 | 0.0 | 0.00 | 0.00 | 0.00 | 39 | 1018.5 |
| 20260504032833 | 56 | 224 | 5.0 | 0.0 | 0.00 | 0.00 | 0.00 | 39 | 1018.5 |
| 20260504032338 | 56 | 200 | 6.0 | 0.0 | 0.00 | 0.00 | 0.00 | 39 | 1018.5 |
| 20260504031905 | 57 | 247 | 7.0 | 0.0 | 0.00 | 0.00 | 0.00 | 38 | 1018.5 |
| 20260504031346 | 57 | 127 | 8.0 | 0.0 | 0.00 | 0.00 | 0.00 | 36 | 1018.4 |
| 20260504030834 | 57 | 286 | 8.0 | 0.0 | 0.00 | 0.00 | 0.00 | 33 | 1018.4 |
| 20260504030346 | 58 | 284 | 11.0 | 0.0 | 0.00 | 0.00 | 0.00 | 32 | 1018.4 |
| 20260504025828 | 59 | 255 | 12.0 | 0.0 | 0.00 | 0.00 | 0.00 | 31 | 1017.0 |
| 20260504025329 | 60 | 257 | 10.0 | 0.0 | 0.00 | 0.00 | 0.00 | 26 | 1017.0 |
| 20260504024857 | 60 | 262 | 8.0 | 0.0 | 0.00 | 0.00 | 0.00 | 24 | 1017.0 |
| 20260504024344 | 60 | 235 | 5.0 | 0.0 | 0.00 | 0.00 | 0.00 | 24 | 1016.1 |
| 20260504023853 | 59 | 240 | 2.0 | 0.0 | 0.00 | 0.00 | 0.00 | 23 | 1016.1 |
| 20260504023337 | 59 | 223 | 0.0 | 0.0 | 0.00 | 0.00 | 0.00 | 23 | 1016.1 |
| 20260504022846 | 59 | 230 | 0.0 | 0.0 | 0.00 | 0.00 | 0.00 | 23 | 1016.0 |
| 20260504022414 | 59 | 230 | 0.0 | 0.0 | 0.00 | 0.00 | 0.00 | 22 | 1016.0 |
| 20260504021835 | 59 | 230 | 0.0 | 0.0 | 0.00 | 0.00 | 0.00 | 23 | 1016.0 |
| 20260504021359 | 60 | 230 | 0.0 | 0.0 | 0.00 | 0.00 | 0.00 | 22 | 1016.3 |
| 20260504020848 | 60 | 230 | 0.0 | 0.0 | 0.00 | 0.00 | 0.00 | 22 | 1016.3 |
| 20260504020332 | 60 | 230 | 0.0 | 0.0 | 0.00 | 0.00 | 0.00 | 22 | 1016.3 |
| 20260504015839 | 61 | 230 | 0.0 | 0.0 | 0.00 | 0.00 | 0.00 | 21 | 1016.5 |
| 20260504015342 | 61 | 230 | 0.0 | 0.0 | 0.00 | 0.00 | 0.00 | 20 | 1016.5 |
| 20260504014832 | 62 | 230 | 0.0 | 0.0 | 0.00 | 0.00 | 0.00 | 20 | 1016.5 |
| 20260504014336 | 62 | 230 | 1.0 | 0.0 | 0.00 | 0.00 | 0.00 | 20 | 1016.1 |
| 20260504013844 | 62 | 228 | 1.0 | 0.0 | 0.00 | 0.00 | 0.00 | 19 | 1016.1 |
| 20260504013355 | 63 | 232 | 1.0 | 0.0 | 0.00 | 0.00 | 0.00 | 19 | 1016.1 |
| 20260504012838 | 63 | 230 | 1.0 | 0.0 | 0.00 | 0.00 | 0.00 | 19 | 1016.1 |
| 20260504012328 | 63 | 223 | 1.0 | 0.0 | 0.00 | 0.00 | 0.00 | 19 | 1016.1 |
| 20260504011859 | 63 | 232 | 1.0 | 0.0 | 0.00 | 0.00 | 0.00 | 18 | 1016.1 |
| 20260504011348 | 63 | 231 | 1.0 | 0.0 | 0.00 | 0.00 | 0.00 | 18 | 1016.2 |
| 20260504010828 | 64 | 245 | 1.0 | 0.0 | 0.00 | 0.00 | 0.00 | 18 | 1016.2 |
| 20260504010340 | 64 | 245 | 1.0 | 0.0 | 0.00 | 0.00 | 0.00 | 17 | 1016.2 |
| 20260504005842 | 65 | 245 | 2.0 | 0.0 | 0.00 | 0.00 | 0.00 | 17 | 1016.6 |
| 20260504005340 | 66 | 241 | 3.0 | 0.0 | 0.00 | 0.00 | 0.00 | 16 | 1016.6 |
| 20260504004829 | 66 | 245 | 3.0 | 0.0 | 0.00 | 0.00 | 0.00 | 16 | 1016.6 |
| 20260504004331 | 66 | 247 | 2.0 | 0.0 | 0.00 | 0.00 | 0.00 | 16 | 1016.8 |